ATLAS F R/B

Satellite information

Favourite Embed

Satellite Type and Status

ROCKET BODYIN ORBIT

Key statistics

Satellite ATLAS F R/B at a glance.

Uptime

17073

Days in orbit

Revolutions

≈ 5.3

Per day

Orbit

HEO

HEO

Inclination

64.3

Latest

Satellite identification and parameters

Extended collection of information and parameters for ATLAS F R/B.

Object identification

Identified? True

Debris? False

Object name: ATLAS F R/B

International designator: 1978-112B

Object number (NORAD): 11142

Object ID (CCSDS): 11142

Country: UNITED STATES OF AMERICA (US)

Current information (Y/N): Y

RCS size: LARGE

Orbital parameters

Period: 269.346 minutes

Inclination: 64.2819 deg

SMA: 13815.527 km

Apoapsis: 13831.584 km

Periapsis: 1043.201 km

RAAN: 273.2974 deg

Eccentricy: 0.46282645

Argument of periapsis: 257.7361 deg

Mean anomaly: 322.3499 deg

Mean motion: 5.34627828 rev/day

Mean motion (dot): 0.00000023 rev/day2

B* drag term: 0.000068087945 1/REarth

Two-line elements (TLE)

Creation date: Sept. 7, 2025, 3:09 a.m.

Reference frame: TEME

Reference center: EARTH

Epoch: Sept. 6, 2025, 12:28 p.m. UTC

TLE line 0: 0 ATLAS F R/B

TLE line 1: 1 11142U 78112B 25249.51959868 .00000023 00000-0 68088-4 0 9990

TLE line 2: 2 11142 64.2819 273.2974 4628265 257.7361 322.3499 5.34627828900500

Live tracking on map

Real-time ground track for satellite ATLAS F R/B.

In-orbit conjunctions

A list of the most updated potential collisions computed for object ATLAS F R/B.

Target Orbit TCA Probability of collision Miss distance Type
ARIANE 1 DEB MEO 2024-09-11 16:25:58 TBA 4275.0 (m) DEBRIS

Associated space launch

First generation GPS satellite

ATLAS F R/B was lifted into orbit during the mission ‘Atlas F/SVS | Navstar 4’, on board a Atlas F/SVS space rocket.

The launch took place on Dec. 11, 1978, 3:59 a.m. from Space Launch Complex 3E.

For more information about the launch, click the button.

Launch to space Atlas F/SVS | Navstar 4
Atlas F/SVS | Navstar 4

Agency: N/A

Status: Launch Successful

Launch date: Dec. 11, 1978, 3:59 a.m. UTC

Rocket: Atlas F/SVS

Launch pad: Space Launch Complex 3E

Location: Vandenberg SFB, CA, USA

...

Latest news about this satellite

There are no fresh news available about this satellite. Check back as we update our databases every day.


Newsletter sign-up

Weekly statistics, charts and insights to help you stay on top of the space industry.